Information Storage

This is the current data collected from the Raspberry Pis. Data is sampled asynchronously. The server scripts process and synchronize the data before storage.


Time PV Temperature (F) Irradiance (W/m2) Die Temperature (F) PV Voltage (V) Forecasted Irradiance (W/m2) Forecasted Power (W)
3/15/17 21:32:12 15.1 0 30.93 1.71
3/15/17 21:27:12 14.14 0 30.93 1.31
3/15/17 21:22:12 14.18 0 30.42 1.45
3/15/17 21:18:16 15.63 0 30.71 1.05
3/15/17 21:12:13 14.81 0 31.1 0.53
3/15/17 21:07:13 12.76 0 31.38 0.79
3/15/17 21:02:14 11.35 48.8281 31.1 0.26
3/15/17 20:57:14 14.45 0 30.87 1.31
3/15/17 20:52:14 13.02 0 31.04 0.26
3/15/17 20:47:14 10.54 0 31.27 0
3/15/17 20:42:15 12.22 0 30.93 0.53
3/15/17 20:37:20 12.13 0 31.1 1.18
3/15/17 20:32:15 8.84 0 31.61 0.79
3/15/17 20:27:16 8.82 0 31.21 1.18
3/15/17 20:22:16 11.82 0 31.49 1.05
3/15/17 20:17:16 11.81 0 31.77 0.26
3/15/17 20:12:17 15.44 0 31.72 0.39
3/15/17 20:07:17 15.8 0 32.28 1.31
3/15/17 20:02:17 11.16 0 31.44 0.79
3/15/17 19:57:18 15.06 0 31.38 0.66
3/15/17 19:53:21 14.13 0 31.83 1.18
3/15/17 19:47:23 15.92 0 31.61 2.76
3/15/17 19:42:22 9.14 0 31.49 2.63
3/15/17 19:37:19 15.21 0 31.21 4.07
3/15/17 19:32:19 15.76 0 31.77 7.88
3/15/17 19:27:20 20.11 0 31.77 16.95
3/15/17 19:22:20 13.39 0 31.32 32.98
3/15/17 19:17:20 15.52 0 31.49 58.59
3/15/17 19:12:20 15.88 0 31.38 80.27
3/15/17 19:07:21 16.07 0 32.06 81.19
3/15/17 19:02:21 16.19 0 32.06 81.72
3/15/17 18:57:21 14.72 0 31.61 88.68
3/15/17 18:52:22 14.78 0 31.61 95.12
3/15/17 18:47:53 13.83 0 31.61 94.86
3/15/17 18:42:22 16.36 0 31.94 101.03
3/15/17 18:37:23 11.89 0 32.17 104.84
3/15/17 18:32:23 17.01 0 31.72 109.7
3/15/17 18:27:23 12.73 0 32.84 111.54
3/15/17 18:22:24 16.45 0 32.39 115.35
3/15/17 18:17:24 13.92 0 32.39 114.3
3/15/17 18:12:24 18.96 0 32.22 114.96
3/15/17 18:07:25 19.86 0 32.06 116.14
3/15/17 18:02:25 18.2 0 31.44 119.16
3/15/17 17:57:25 14.63 0 31.16 120.61
3/15/17 17:52:25 14.07 0 31.21 121.13
3/15/17 17:47:26 14.76 0 30.48 120.74
3/15/17 17:42:26 15.4 0 30.48 120.87
3/15/17 17:37:26 30.56 0 30.59 120.74
3/15/17 17:32:27 17.36 0 30.2 122.05
3/15/17 17:27:27 24.95 24.4141 29.52 120.74
3/15/17 17:22:27 16.45 0 30.03 121.13
3/15/17 17:17:28 14 0 30.48 121.92
3/15/17 17:12:28 17.06 24.4141 30.26 122.97
3/15/17 17:07:28 15.8 0 30.99 123.76
3/15/17 17:02:29 21.58 24.4141 31.1 124.28
3/15/17 16:57:29 21.22 0 30.37 124.28
3/15/17 16:52:29 10.77 0 30.48 124.28
3/15/17 16:47:30 22.38 48.8281 30.03 123.5
3/15/17 16:42:30 14.18 24.4141 30.42 124.94
3/15/17 16:37:30 19.7 0 29.36 125.07
3/15/17 16:32:30 21.24 0 29.75 123.1
3/15/17 16:27:31 24.46 0 29.41 124.94
3/15/17 16:22:31 8.21 24.4141 29.81 125.47
3/15/17 16:17:31 21.2 48.8281 29.52 124.81
3/15/17 16:12:42 11.23 24.4141 29.81 125.33
3/15/17 16:07:32 23.36 0 28.91 123.5
3/15/17 16:02:32 17.52 48.8281 29.3 125.2
3/15/17 15:57:38 20.86 24.4141 29.3 125.73
3/15/17 15:52:33 12.35 24.4141 29.52 124.94
3/15/17 15:47:41 20.77 48.8281 30.65 126.25
3/15/17 15:42:34 15.71 48.8281 30.82 126.12
3/15/17 15:37:49 24.39 73.2422 30.54 127.31
3/15/17 15:32:34 10.2 73.2422 30.87 127.31
3/15/17 15:27:40 11.41 73.2422 29.69 127.44
3/15/17 15:22:35 10.79 122.07 31.21 127.31
3/15/17 15:17:44 11.29 97.6563 31.44 127.96
3/15/17 15:12:39 13.32 122.07 30.59 127.96
3/15/17 15:07:36 9.35 97.6563 30.87 127.04
3/15/17 15:02:36 27.97 73.2422 29.92 127.44
3/15/17 14:57:42 13.18 170.898 31.89 127.44
3/15/17 14:52:40 17.68 97.6563 32.34 127.04
3/15/17 14:47:37 11.36 146.484 32.11 127.83
3/15/17 14:42:38 8.33 146.484 32 129.14
3/15/17 14:37:38 9.74 146.484 33.07 129.67
3/15/17 14:32:38 10.44 122.07 31.44 129.01
3/15/17 14:27:38 19.52 170.898 31.89 129.28
3/15/17 14:22:39 9.57 122.07 31.32 127.83
3/15/17 14:17:39 35.04 97.6563 32.51 127.04
3/15/17 14:12:40 11.5 146.484 32.51 128.62
3/15/17 14:07:40 20.71 195.312 32.06 129.01
3/15/17 14:02:40 7.41 122.07 32.62 127.83
3/15/17 13:57:40 7.48 195.312 32.68 129.28
3/15/17 13:52:41 62.51 195.312 32.56 129.67
3/15/17 13:47:41 4.64 268.555 31.61 130.59
3/15/17 13:42:41 11.64 244.141 31.27 130.2
3/15/17 13:37:42 10.23 195.312 30.37 129.93
3/15/17 13:32:42 17.06 170.898 29.92 129.8
3/15/17 13:27:42 18.2 97.6563 30.76 129.01
3/15/17 13:22:42 11.78 146.484 32.28 129.01
3/15/17 13:17:43 11.01 195.312 31.66 129.41
3/15/17 13:12:43 14.07 195.312 33.74 129.41
3/15/17 13:07:43 35.26 244.141 33.29 130.46
3/15/17 13:02:44 26.72 219.727 33.52 128.88
3/15/17 12:57:44 2.23 195.312 33.52 129.67
3/15/17 12:52:51 10.96 244.141 34.47 128.36
3/15/17 12:45:16 23.89 268.555 34.87 129.93
3/15/17 12:40:17 5.98 219.727 33.07 129.67
3/15/17 12:35:18 25.67 219.727 31.89 130.33
3/15/17 12:30:17 8.74 244.141 32.39 129.8
3/15/17 12:25:18 13.35 195.312 31.1 130.33
3/15/17 12:20:18 -23.44 219.727 31.49 129.67
3/15/17 12:15:18 24.41 268.555 32.51 130.72
3/15/17 12:10:24 15.81 170.898 31.38 129.14
3/15/17 12:05:19 7.27 170.898 31.38 128.88
3/15/17 12:00:19 6.68 244.141 32.96 128.75
3/15/17 11:55:19 11.14 219.727 32 129.41
3/15/17 11:50:20 16.16 170.898 31.55 129.28
3/15/17 11:45:20 15.98 219.727 31.27 129.28
3/15/17 11:40:21 1.72 244.141 32.84 129.41
3/15/17 11:35:21 -0.41 244.141 30.54 129.93
3/15/17 11:30:21 7.28 219.727 31.1 129.67
3/15/17 11:25:21 21.05 170.898 29.69 128.88
3/15/17 11:20:22 15.29 170.898 31.94 128.49
3/15/17 11:15:22 18.49 268.555 33.01 129.28
3/15/17 11:10:27 4.54 317.383 32.39 129.28
3/15/17 11:05:23 16.38 366.211 31.38 130.46
3/15/17 11:00:23 11.55 170.898 32.11 127.96
3/15/17 10:55:23 6.07 317.383 30.76 130.33
3/15/17 10:50:24 6.89 244.141 28.79 130.06
3/15/17 10:45:24 23.41 244.141 29.64 129.93
3/15/17 10:40:24 7.54 195.312 29.75 129.8
3/15/17 10:35:25 19.11 146.484 30.26 128.75
3/15/17 10:30:25 13.97 268.555 29.64 129.67
3/15/17 10:25:26 5.64 366.211 30.31 130.06
3/15/17 10:20:26 36.11 195.312 31.83 128.36
3/15/17 10:15:26 19.07 170.898 30.76 128.49
3/15/17 10:10:26 32.53 244.141 32.34 129.14
3/15/17 10:05:27 4.54 195.312 31.16 128.75
3/15/17 10:00:32 17.27 195.312 30.03 127.44
3/15/17 09:55:27 2.46 170.898 29.75 129.14
3/15/17 09:50:36 32.68 659.18 33.29 131.38
3/15/17 09:45:28 0.64 683.594 31.21 132.43
3/15/17 09:40:28 19.09 170.898 29.41 129.93
3/15/17 09:35:28 16.41 561.523 30.54 131.9
3/15/17 09:30:29 10.75 268.555 30.03 126.78
3/15/17 09:25:39 -7.49 610.352 27.78 132.82
3/15/17 09:20:29 0.53 415.039 26.66 131.25
3/15/17 09:15:30 0.6 512.695 26.66 130.98
3/15/17 09:10:30 18.48 512.695 26.99 130.98
3/15/17 09:05:30 -0.96 341.797 24.24 130.72
3/15/17 09:00:31 -12.78 439.453 25.92 130.72
3/15/17 08:55:31 6.44 439.453 27.11 130.59
3/15/17 08:50:31 -9.63 390.625 25.42 130.33
3/15/17 08:45:32 -6.31 366.211 24.97 130.2
3/15/17 08:40:32 -1.9 366.211 24.97 130.06
3/15/17 08:35:35 23.37 390.625 24.74 129.8
3/15/17 08:30:33 -2.05 341.797 24.52 129.28
3/15/17 08:25:33 -7.44 317.383 24.86 129.01
3/15/17 08:20:33 17.82 268.555 24.86 128.49
3/15/17 08:15:34 -3.16 219.727 24.74 127.44
3/15/17 08:10:39 5.34 195.312 23.17 126.78
3/15/17 08:05:34 -6.99 170.898 23.67 126.25
3/15/17 08:00:40 -2.46 146.484 23.34 125.2
3/15/17 07:55:35 -13.71 170.898 22.49 124.42
3/15/17 07:50:35 -3.86 0 22.77 123.1
3/15/17 07:45:41 -7.82 0 21.87 121.66
3/15/17 07:40:36 -6.55 0 21.03 117.45
3/15/17 07:35:36 -2.18 0 21.99 115.74
3/15/17 07:30:37 -6.91 0 20.64 112.07
3/15/17 07:25:37 -6.58 0 20.81 107.99
3/15/17 07:20:37 -4.19 0 21.09 103.39
3/15/17 07:15:52 -15.49 0 21.31 98.14
3/15/17 07:10:38 -6.11 0 20.97 90.13
3/15/17 07:05:38 -5.86 0 20.69 78.56
3/15/17 07:00:40 -6.38 0 21.14 62.8
3/15/17 06:55:39 -5.68 0 20.92 41.65
3/15/17 06:50:39 -3.33 0 21.03 17.87
3/15/17 06:45:49 -5.17 0 20.92 7.62
3/15/17 06:40:40 -3.59 0 21.26 2.36
3/15/17 06:35:40 -3.43 0 21.82 0.39
3/15/17 06:30:41 -3.3 0 21.26 0.39
3/15/17 06:25:41 -2.71 0 21.76 0.66
3/15/17 06:20:41 -7.09 0 21.37 0.26
3/15/17 06:15:41 -4.25 0 21.2 0
3/15/17 06:10:42 -0.7 0 21.82 0.13
3/15/17 06:05:42 -2.64 0 21.76 0.39
3/15/17 06:00:47 0.91 0 22.21 0.39
3/15/17 05:55:46 0.39 0 22.04 0.79
3/15/17 05:50:43 0.6 0 22.49 0.53
3/15/17 05:45:43 2.68 0 22.38 0.39
3/15/17 05:40:44 7.75 0 22.44 0.92
3/15/17 05:35:44 8.21 0 22.83 0.53
3/15/17 05:30:44 7.05 0 23.22 1.31
3/15/17 05:25:45 4.94 0 22.72 1.05
3/15/17 05:20:45 11.94 0 22.49 0.66
3/15/17 05:15:45 6.84 0 23.17 0.26
3/15/17 05:10:46 4.58 0 23.11 0.66
3/15/17 05:05:46 -6.87 0 23.51 1.05
3/15/17 05:00:46 4.96 0 22.89 0
3/15/17 04:55:47 7.05 0 23.22 1.18
3/15/17 04:50:47 8.78 0 23.11 1.05
3/15/17 04:45:47 7.36 0 23 0.39
3/15/17 04:40:48 5.51 0 23.39 0.92
3/15/17 04:35:48 8.01 0 23.34 1.45
3/15/17 04:30:48 8.87 0 24.24 1.18
3/15/17 04:25:49 10.22 0 23.45 0.92
3/15/17 04:20:49 9.01 0 23.34 0.79
3/15/17 04:15:49 4.35 0 23.39 0.39
3/15/17 04:10:50 7.67 0 23.84 0.66
3/15/17 04:05:50 10.86 0 23.79 1.05
3/15/17 04:00:50 6.68 0 23.51 1.71
3/15/17 03:55:51 7.28 0 23.45 0.53
3/15/17 03:50:51 7.63 0 24.46 1.31
3/15/17 03:45:51 4.76 0 23.84 1.18
3/15/17 03:40:52 6.39 0 23.84 2.36
3/15/17 03:35:52 9.55 0 24.35 1.84
3/15/17 03:30:52 12.24 0 24.35 1.58
3/15/17 03:25:52 11.19 0 24.29 2.36
3/15/17 03:20:53 11.98 0 24.35 1.31
3/15/17 03:15:53 7.09 0 24.46 0.92
3/15/17 03:10:53 8.55 0 24.35 0.92
3/15/17 03:05:54 8.58 0 24.52 1.31
3/15/17 03:00:54 8.54 0 24.29 1.05
3/15/17 02:55:54 -6.26 0 24.46 1.05
3/15/17 02:50:55 4.87 0 24.97 0.66
3/15/17 02:45:55 6.66 0 24.29 0.13
3/15/17 02:40:55 5.94 0 24.46 1.05
3/15/17 02:35:56 6.23 0 25.87 0.92
3/15/17 02:30:56 6.7 0 25.81 0.92
3/15/17 02:25:56 11.6 0 24.91 1.58
3/15/17 02:20:57 6.8 0 25.64 1.71
3/15/17 02:15:57 6.33 0 24.8 1.31
3/15/17 02:10:57 8.41 0 25.19 1.18
3/15/17 02:05:58 11.72 0 24.35 1.05
3/15/17 02:00:58 7.59 0 25.53 1.31
3/15/17 01:55:58 8.63 0 24.41 1.45
3/15/17 01:50:59 -7.15 0 25.19 1.45
3/15/17 01:45:59 6.58 0 24.18 0.13
3/15/17 01:40:59 6 0 24.41 0.92
3/15/17 01:36:00 7.63 0 24.46 0.53
3/15/17 01:31:00 8.23 0 24.41 1.18
3/15/17 01:26:00 6.66 0 25.14 1.31
3/15/17 01:21:01 4.52 0 24.97 0.13
3/15/17 01:16:01 6.29 0 25.36 1.18
3/15/17 01:11:01 5.66 0 24.35 1.05
3/15/17 01:06:02 2.94 0 24.52 0.92
3/15/17 01:01:02 5.53 0 24.86 0.39
3/15/17 00:56:07 7.5 0 24.46 0.79
3/15/17 00:51:11 7.18 0 25.02 1.71
3/15/17 00:46:18 8.06 0 24.63 1.18
3/15/17 00:41:13 4.5 0 24.35 1.05
3/15/17 00:36:04 7.26 0 24.69 0.53
3/15/17 00:31:04 7.19 0 24.69 0.66
3/15/17 00:26:04 -16.27 0 24.46 0.53
3/15/17 00:21:06 0.82 0 24.35 0
3/15/17 00:16:05 4.87 0 24.12 0.66
3/15/17 00:11:06 0.6 0 24.29 0.92
3/15/17 00:06:05 1.23 0 23.84 0
3/15/17 00:01:06 3.2 0 24.41 0.13
3/14/17 23:56:06 0.34 0 24.8 0.26
3/14/17 23:51:06 -0.47 0 24.63 0.26
3/14/17 23:46:08 5.28 0 24.12 0
3/14/17 23:41:07 -42.83 0 24.91 0.39
3/14/17 23:36:07 6.45 0 25.92 0.13
3/14/17 23:31:08 2.81 0 24.57 0.26
3/14/17 23:26:08 -6.89 0 25.36 0.79
3/14/17 23:21:08 -5.34 0 25.08 1.05
3/14/17 23:16:09 5.35 0 25.02 0.66
3/14/17 23:11:09 7.54 0 25.64 1.58
3/14/17 23:06:09 11.19 0 25.25 0.92
3/14/17 23:01:10 13.64 0 25.53 1.31
3/14/17 22:56:10 3.73 0 25.92 0
3/14/17 22:51:10 6.7 0 25.42 0.53
3/14/17 22:46:11 4.12 0 25.42 0.79
3/14/17 22:41:16 2.55 0 25.47 0.53
3/14/17 22:36:11 6.56 0 24.97 0.26
3/14/17 22:31:12 6.64 0 25.47 1.05
3/14/17 22:26:12 4.07 0 25.14 0
3/14/17 22:21:12 2.31 0 26.49 0.13
3/14/17 22:16:13 3.67 0 25.59 0.26
3/14/17 22:11:13 2.75 0 26.26 1.31
3/14/17 22:06:13 13.73 0 26.6 1.71
3/14/17 22:01:19 7.13 0 26.37 1.05
3/14/17 21:56:14 0.98 0 26.04 0.39
3/14/17 21:51:14 1.63 0 25.81 0.13
3/14/17 21:46:14 -1.17 0 26.6 0
3/14/17 21:41:15 -0.07 0 27.16 0.13
3/14/17 21:36:15 5.15 0 27.05 0
3/14/17 21:31:15 9.69 0 27.39 0.53
3/14/17 21:26:16 3.08 0 27.33 0.26
3/14/17 21:21:16 4.13 0 28.17 0.13
3/14/17 21:16:16 6.2 0 28.01 0.13
3/14/17 21:11:17 7.48 0 29.13 0
3/14/17 21:06:17 5.93 0 29.07 0.13
3/14/17 21:01:17 12.85 0 29.47 0.26
3/14/17 20:56:18 11.74 0 30.09 0.53
3/14/17 20:51:18 22.78 0 29.07 0.92
3/14/17 20:46:18 16.68 0 29.13 1.58
3/14/17 20:41:19 -11.41 0 29.75 1.71
3/14/17 20:36:19 13.62 0 30.87 1.84
3/14/17 20:31:19 16.27 0 30.09 1.58
3/14/17 20:26:19 16.43 0 29.52 1.84
3/14/17 20:21:20 11.11 0 30.87 1.31
3/14/17 20:16:20 17.07 0 30.31 0.66
3/14/17 20:11:20 14.73 0 30.65 1.18
3/14/17 20:06:21 16.36 0 30.59 1.58
3/14/17 20:01:21 15.89 0 31.1 1.84
3/14/17 19:56:21 21.09 0 30.71 1.84
3/14/17 19:51:22 19.22 0 30.93 1.58
3/14/17 19:46:22 15.27 0 30.14 1.45
3/14/17 19:41:22 16.27 0 30.42 2.63
3/14/17 19:36:23 17.73 0 30.2 3.55
3/14/17 19:31:23 14.57 0 31.16 7.75
3/14/17 19:26:23 15.95 0 30.76 17.34
3/14/17 19:21:24 16.61 0 30.59 36
3/14/17 19:16:24 19.69 0 30.76 56.23
3/14/17 19:11:24 0.42 0 31.44 72.26
3/14/17 19:06:24 2.17 0 30.93 81.19
3/14/17 19:01:25 27.67 0 31.49 88.55
3/14/17 18:56:25 18.98 0 30.93 97.75
3/14/17 18:51:25 18.52 0 31.49 103.26
3/14/17 18:46:26 18.43 0 31.66 106.68
3/14/17 18:41:26 18.38 0 31.38 107.34
3/14/17 18:36:31 17.78 0 32.17 110.49
3/14/17 18:31:32 20.13 0 33.18 112.59
3/14/17 18:26:27 17.42 0 33.24 116.14
3/14/17 18:21:27 21.31 0 33.35 117.06
3/14/17 18:16:28 14.51 24.4141 34.31 118.37
3/14/17 18:11:28 21 0 34.87 119.29
3/14/17 18:06:28 15.81 0 35.94 119.69
3/14/17 18:01:28 18.63 0 35.77 119.29
3/14/17 17:56:29 19.79 24.4141 35.77 119.95
3/14/17 17:51:29 20.9 0 35.83 119.69
3/14/17 17:46:29 23.63 0 37.4 120.61
3/14/17 17:41:30 24.55 0 36.95 120.87
3/14/17 17:36:30 27.86 0 37.68 121.79
3/14/17 17:31:30 27.09 48.8281 37.34 120.61
3/14/17 17:26:31 23.21 0 38.47 127.17
3/14/17 17:21:31 3.44 292.969 48.43 127.7
3/14/17 17:16:31 11.56 268.555 52.31 127.44
3/14/17 17:11:31 20.96 292.969 52.36 127.96
3/14/17 17:06:32 23.68 317.383 53.77 127.96
3/14/17 17:01:32 29.04 317.383 45.61 129.8
3/14/17 16:56:32 20.66 170.898 40.1 127.96
3/14/17 16:51:38 20.57 97.6563 38.47 125.99
3/14/17 16:46:33 35 97.6563 37.34 124.42
3/14/17 16:41:38 16.49 24.4141 37.79 122.97
3/14/17 16:36:34 23.25 24.4141 37.29 123.23
3/14/17 16:31:34 14.68 73.2422 38.3 124.55
3/14/17 16:26:34 27.44 97.6563 38.69 124.68
3/14/17 16:21:35 24.52 73.2422 39.76 124.55
3/14/17 16:16:35 14.48 97.6563 39.99 124.94
3/14/17 16:11:35 24.81 146.484 40.49 125.6
3/14/17 16:06:35 22.73 317.383 42.35 127.83
3/14/17 16:01:36 27.6 195.312 39.71 128.09
3/14/17 15:56:36 20.39 244.141 40.94 127.57
3/14/17 15:51:36 14.74 195.312 40.49 127.17
3/14/17 15:46:37 26.84 146.484 39.43 128.23
3/14/17 15:41:42 8.28 195.312 39.03 127.44
3/14/17 15:36:37 13.96 219.727 38.19 127.44
3/14/17 15:31:38 17.01 97.6563 38.41 126.39
3/14/17 15:26:48 23.14 48.8281 37.34 125.6
3/14/17 15:21:38 -30.17 97.6563 37.23 126.12
3/14/17 15:16:39 30.21 48.8281 37.34 124.55
3/14/17 15:11:44 22.56 146.484 37.12 125.33
3/14/17 15:06:39 38.6 73.2422 38.13 125.73
3/14/17 15:01:39 17.47 97.6563 38.53 125.6
3/14/17 14:56:40 0.26 73.2422 37.46 125.33
3/14/17 14:51:40 21.79 97.6563 37.74 125.2
3/14/17 14:46:40 20.94 122.07 36.05 124.68
3/14/17 14:41:41 27.55 73.2422 36.44 124.42
3/14/17 14:36:41 17.71 73.2422 36.11 124.42
3/14/17 14:31:41 26.69 73.2422 36.5 124.15
3/14/17 14:26:42 38.3 73.2422 35.09 124.28
3/14/17 14:21:47 8.38 97.6563 35.66 124.81
3/14/17 14:16:50 22.77 48.8281 36.44 124.55
3/14/17 14:11:56 14.24 97.6563 36.5 125.6
3/14/17 14:06:51 19.28 48.8281 35.38 125.07
3/14/17 14:01:43 10.1 122.07 36.56 125.99
3/14/17 13:56:54 20.31 73.2422 35.32 124.02
3/14/17 13:51:49 37.13 48.8281 34.98 123.5
3/14/17 13:46:44 32.62 73.2422 36.89 125.2
3/14/17 13:41:44 23.99 73.2422 35.99 123.89
3/14/17 13:36:45 24.18 73.2422 36.33 124.42
3/14/17 13:31:45 26.11 73.2422 35.94 123.1
3/14/17 13:26:45 25.34 48.8281 34.98 124.15
3/14/17 13:21:46 32.62 97.6563 34.64 122.71
3/14/17 13:16:51 2.33 73.2422 36.05 124.81
3/14/17 13:11:46 20.46 170.898 36.05 126.25
3/14/17 13:06:47 28.1 122.07 35.99 125.73
3/14/17 13:01:47 31.61 146.484 36.95 125.33
3/14/17 12:56:47 17.01 170.898 37.12 125.2
3/14/17 12:51:48 45.77 244.141 37.18 127.04
3/14/17 12:46:48 31.54 366.211 39.71 128.88
3/14/17 12:41:48 69.68 415.039 39.99 126.91
3/14/17 12:36:48 37.3 561.523 42.52 126.78
3/14/17 12:31:49 -25.19 292.969 37.23 125.07
3/14/17 12:26:49 6.65 268.555 35.6 124.42
3/14/17 12:21:52 21.16 146.484 35.32 122.44
3/14/17 12:16:55 -12.53 146.484 34.87 121.13
3/14/17 12:11:50 -96.63 73.2422 34.36 120.34
3/14/17 12:06:50 -82.55 146.484 35.21 122.05
3/14/17 12:01:51 -194.6 97.6563 34.36 120.87
3/14/17 11:56:56 -53.76 122.07 33.97 122.05
3/14/17 11:51:51 -131.42 219.727 36.28 124.42
3/14/17 11:46:51 8.4 219.727 34.64 122.58
3/14/17 11:41:52 15.34 48.8281 36.61 124.94
3/14/17 11:36:52 -43.36 24.4141 35.15 122.31
3/14/17 11:31:52 13.36 73.2422 36.5 122.58
3/14/17 11:26:57 13.08 0 34.76 115.35
3/14/17 11:21:53 26.01 48.8281 34.81 120.47
3/14/17 11:16:53 36.29 48.8281 31.94 119.42
3/14/17 11:12:04 36.29 24.4141 31.94 109.31
3/14/17 11:06:54 36.29 48.8281 31.94 115.35
3/14/17 11:01:59 36.29 24.4141 31.94 113.64
3/14/17 10:56:55 36.29 0 31.94 115.09
3/14/17 10:52:00 36.29 24.4141 31.94 113.51
3/14/17 10:47:00 -23.71 24.4141 33.41 113.9
3/14/17 10:41:56 -43.29 24.4141 33.58 112.72
3/14/17 10:36:56 -52.91 0 33.86 112.2
3/14/17 10:32:01 83.27 0 34.14 111.41
3/14/17 10:27:02 -36.25 0 33.91 110.88
3/14/17 10:21:57 23.53 0 34.53 112.59
3/14/17 10:16:57 -3.15 0 34.25 111.28
3/14/17 10:11:57 20.94 0 34.53 111.01
3/14/17 10:06:58 20.56 0 34.47 109.57
3/14/17 10:01:58 24.05 0 34.47 106.68
3/14/17 09:56:58 24.88 0 33.46 103.53
3/14/17 09:52:12 23.36 0 33.29 103.13
3/14/17 09:47:04 21.12 0 32.96 100.9
3/14/17 09:41:59 16.09 0 32.51 97.48
3/14/17 09:37:00 15.38 0 33.35 96.69
3/14/17 09:32:00 23.51 0 33.46 94.07
3/14/17 09:27:00 21.71 0 32.84 90.52
3/14/17 09:22:00 20.33 0 32.62 85.79
3/14/17 09:17:01 17.4 0 32.17 75.94
3/14/17 09:12:01 8.69 0 32.17 76.59
3/14/17 09:07:01 21.24 0 32.28 75.02
3/14/17 09:02:02 19.99 0 32.45 75.28
3/14/17 08:57:02 19.14 0 32.51 75.15
3/14/17 08:52:02 7.84 0 32.17 67.66
3/14/17 08:47:03 19.02 0 31.89 65.95
3/14/17 08:42:03 10.17 0 32 62.54
3/14/17 08:37:03 12.47 0 32.17 68.58
3/14/17 08:32:04 23.11 0 31.89 65.69
3/14/17 08:27:04 18.22 0 31.89 59.25
3/14/17 08:22:09 18.09 0 32.51 54.65
3/14/17 08:17:05 20.55 0 32.17 58.2
3/14/17 08:12:05 10.91 0 32.11 53.47
3/14/17 08:07:05 22.01 0 31.83 49.92
3/14/17 08:02:05 23.08 0 31.72 42.7
3/14/17 07:57:06 18.87 0 32.06 45.33
3/14/17 07:52:06 28.29 0 31.72 38.76
3/14/17 07:47:06 20.71 0 32.06 39.41
3/14/17 07:42:07 21.11 0 31.89 35.08
3/14/17 07:37:07 21.26 0 32.06 32.58
3/14/17 07:32:07 17.8 0 31.61 27.06
3/14/17 07:27:08 21.4 0 31.1 25.49
3/14/17 07:22:08 21.91 0 31.27 20.23
3/14/17 07:17:08 9.07 0 31.77 14.19
3/14/17 07:12:09 27.36 0 31.38 10.77
3/14/17 07:07:09 15.37 0 32.06 6.57
3/14/17 07:02:09 19.52 0 31.89 4.07
3/14/17 06:57:10 20.27 0 31.27 2.89
3/14/17 06:52:10 20.7 0 31.27 2.23
3/14/17 06:47:10 25.71 0 31.72 1.84
3/14/17 06:42:21 15.31 0 31.72 1.18
3/14/17 06:37:11 0.71 0 31.49 1.58
3/14/17 06:32:12 23.38 0 31.72 2.1
3/14/17 06:27:11 24.17 0 31.77 1.58
3/14/17 06:22:12 28.31 0 31.1 1.45
3/14/17 06:17:17 21.2 0 31.38 2.1
3/14/17 06:12:12 19.78 0 31.27 1.31
3/14/17 06:07:18 14.88 0 30.76 1.71
3/14/17 06:02:14 19.37 0 30.71 1.71
3/14/17 05:57:13 20.38 0 31.21 1.31
3/14/17 05:52:29 20.7 0 30.93 1.84
3/14/17 05:47:14 20.07 0 31.55 1.18
3/14/17 05:42:19 20.77 0 32.06 1.31
3/14/17 05:37:15 19.93 0 32.11 2.1
3/14/17 05:32:15 20.68 0 31.55 2.5
3/14/17 05:27:21 20.51 0 31.94 1.58
3/14/17 05:22:16 11.02 0 31.72 1.71
3/14/17 05:17:16 20.73 0 31.44 2.36
3/14/17 05:12:16 21.26 0 31.38 1.45
3/14/17 05:07:22 21.98 0 31.66 2.1
3/14/17 05:02:17 26.55 0 31.83 2.36
3/14/17 04:57:17 22.25 0 31.83 2.1
3/14/17 04:52:17 25.57 0 31.94 1.18
3/14/17 04:47:28 24.24 0 32.22 2.23
3/14/17 04:42:18 20.82 0 32.34 1.97
3/14/17 04:37:23 21.67 0 32.28 1.58
3/14/17 04:32:19 22.46 0 32.34 1.31
3/14/17 04:27:43 21.51 0 32.11 1.84
3/14/17 04:22:29 21.95 0 32.17 0.92
3/14/17 04:17:19 10.18 0 32.39 1.45
3/14/17 04:12:20 20.66 0 32.45 1.31
3/14/17 04:07:21 21.81 0 32.39 0.26
3/14/17 04:02:20 23.2 0 32.45 0.66
3/14/17 03:57:21 21.22 0 32.17 1.05

Previous 1 2 3 4 5 6 7 8 9 10 11 12 13 14 15 16 17 Next